Regional Weather Roundup
Issued by NWS Portland, ME

Home | Current Version | Previous Version | Text Only | Print | Product List | Glossary On
Versions: 1 2 3 4 5 6 7 8 9 10 11 12 13 14 15 16 17 18 19 20 21 22 23 24 25 26 27 28 29 30 31 32 33 34 35 36 37 38 39 40 41 42 43 44 45 46 47 48 49 50
000
ASUS41 KGYX 261110
RWRGYX
WEATHER ROUNDUP FOR MAINE AND NEW HAMPSHIRE
NATIONAL WEATHER SERVICE GRAY ME
700 AM EDT FRI MAY 26 2017

MEZ002-005-006-010-012-015-018-020-021-024-026-027-029-261200-
MAINE

CITY           SKY/WX    TMP DP  RH WIND       PRES   REMARKS
PORTLAND       CLOUDY    49  46  90 NE15G25   29.55F
SANFORD        CLOUDY    49  47  93 NE20G26   29.52F
BAR HARBOR     RAIN      47  46  97 E14G21    29.61F FOG
WISCASSET      LGT RAIN  49  48  97 VRB6      29.59F
ROCKLAND       LGT RAIN  47  46  97 NE16G26   29.60F
FRYEBURG       RAIN      49  48  97 N16G23    29.57F
LEWISTONAUBURN LGT RAIN  48  47  96 NE16      29.56F
AUGUSTA        RAIN      47  45  93 N9        29.62F FOG
WATERVILLE     HVY RAIN  47  46  97 N9        29.62F FOG
BANGOR         RAIN      48  47  96 NE12      29.63F FOG
GREENVILLE       N/A     46  45  96 E13       29.65S
MILLINOCKET    LGT RAIN  46  46 100 NE12      29.72S FOG
HOULTON        CLOUDY    48  43  82 VRB7      29.74F
PRESQUE ISLE   CLOUDY    49  42  77 NE9       29.79F
FRENCHVILLE    CLOUDY    47  34  60 NE13      29.80F
CARIBOU        CLOUDY    50  41  71 NE8       29.78F
$$

NHZ002-005-008-009-011-012-014-261200-
NEW HAMPSHIRE

CITY           SKY/WX    TMP DP  RH WIND       PRES   REMARKS
PORTSMOUTH     LGT RAIN  48  46  91 NE14G30   29.50R
ROCHESTER      CLOUDY    49  45  86 NE9G22    29.51R
NASHUA         LGT RAIN  49  48  97 NE5       29.53R
MANCHESTER     CLOUDY    50  46  86 E6        29.50R
CONCORD        CLOUDY    50  47  89 N6        29.51R
LACONIA        LGT RAIN  50  47  89 E18G25    29.51F
PLYMOUTH       RAIN      50  48  92 CALM      29.51F
BERLIN         RAIN      49  44  83 CALM      29.63S
WHITEFIELD     LGT RAIN  49  44  83 E12G24    29.57F
JAFFREY        LGT RAIN  48  48 100 CALM      29.52R FOG
KEENE          LGT RAIN  50  49  96 S3        29.52R
LEBANON        LGT RAIN  52  51  97 N7        29.52S FOG
MT WASHINGTON  RAIN      32  32 100 E16         N/A  VSB 3/16
$$

VTZ005-007-008-261200-
VERMONT

CITY           SKY/WX    TMP DP  RH WIND       PRES   REMARKS
ST JOHNSBURY     N/A     50  49  96 MISG      29.55S
MONTPELIER     LGT RAIN  50  50 100 N6        29.58F
BURLINGTON     LGT RAIN  55  53  93 N3        29.55S
$$

MAZ007-012-024-CTZ003-RIZ002-NYZ038-NYZ072-261200-
SOUTHERN NEW ENGLAND AND NY

CITY           SKY/WX    TMP DP  RH WIND       PRES   REMARKS
BOSTON         LGT RAIN  49  48  97 N12       29.49F
WORCESTER      LGT RAIN  46  44  93 N9        29.49S FOG
NANTUCKET      MOSUNNY   54  52  93 S13       29.49S
PROVIDENCE     LGT RAIN  50  50 100 N9        29.48S FOG
HARTFORD       LGT RAIN  51  50  96 N7        29.52R
ALBANY         LGT RAIN  53  51  93 NW5       29.56R FOG
NEW YORK CITY  PTSUNNY   58  55  90 NW6       29.54R
$$

ANZ081-ANZ082-ANZ150-NHZ014-MEZ023>029-261200-
COASTAL MARINE OBSERVATIONS

STATION/POSITION TIME  TEMP    WIND        PRES    WAVE
                       AIR SEA DIR/SP/G            HT/PER
                 (UTC) (F)     (DEG/KT/KT) (MB)    (FT/S)
MOUNT DESERT ROC 1100   45                 1001.6S
MATINICUS ROCK   1000   45      80/ 26/ 29 1000.8R
ISLE OF SHOALS   1000   47      30/ 35/ 40  997.4F
JEFFREYS LEDGE   1006      48                N/A     8/ 8
CASHES LEDGE BUO 0950   48 47               999.1    9/ 8
GEORGES BANK BUO 0950   52 45              1001.8    8/ 8
$$

.............KEY..............
   WCI - WIND CHILL
   TC  - TEMPERATURE IN CELSIUS
   VSB - VISIBILITY IN MILES
   HX  - HEAT INDEX
   FAIR- INDICATES FEW OR NO CLOUDS BELOW 12,000 FT, WITH NO
         SIGNIFICANT WEATHER AND/OR OBSTRUCTIONS TO VISIBILITY.






USA.gov is the U.S. government's official web portal to all federal, state and local government web resources and services.